Powrót do katalogu

THORAD AGENA D DEB

AktywnySSO
NORAD 5692·DEBRIS·🇺🇸 United States

Wystrzelony Apr 8, 1970 z Vandenberg Space Force Base

Loading…

Następne Przeloty (najbliższe 24 godziny)

TLE

ŚwieżeSource: Space-Track

Epoka: Sep 14, 2026, 00:11 UTC

1 05692U 70025LX  26257.00795845  .00000149  00000-0  26645-3 0  9996
2 05692  99.3842 279.0742 0114733 132.4807 258.4389 13.54382040576405

Śledź THORAD AGENA D DEB w czasie rzeczywistym z AllMySat

Download on the App Store